#timestamp,LO_Frequency,Hit,StdDev 
1506866415.6,286047002.4,N
1506866435.4,286047000.7,N
1506866455.2,286047002.1,N
1506866475.0,286046999.9,N
1506866475.9,286046999.9,N
1506866495.8,286047000.3,N
1506866515.6,286047002.1,N
1506866535.4,286047000.5,N
1506866555.3,286046999.4,N
1506866575.1,286046997.1,N
1506866595.8,286046995.3,N
1506866615.7,286046998.5,N
1506866635.5,286047002.5,N
1506866655.3,286046998.2,N
1506866675.2,286047000.2,N
1506866695.9,286047001.5,N
1506866715.7,286047001.4,N
1506866735.5,286047000.2,N
1506866755.4,286047000.8,N
1506866775.2,286046999.8,N
1506866795.0,286047000.0,N
1506866795.9,286047000.0,N
1506866815.8,286047000.0,N
1506866835.6,286047002.1,N
1506866855.4,286047002.9,N
1506866875.3,286047002.3,N
1506866895.1,286047002.2,N
1506866915.8,286047002.0,N
1506866935.7,286047002.2,N
1506866955.5,286047003.3,N
1506866975.3,286047001.7,N
1506866995.2,286047002.5,N
1506867015.9,286046999.7,N
1506867035.7,286047000.5,N
1506867055.5,286047000.2,N
1506867075.4,286047000.7,N
1506867095.2,286047000.7,N
1506867115.0,286047002.7,N
1506867115.9,286047002.7,N
1506867135.8,286046999.7,N
1506867155.6,286046999.2,N
1506867175.4,286046997.9,N
1506867195.3,286046996.1,N
1506867215.1,286046996.6,N
1506867235.8,286047001.1,N
1506867255.7,286046997.1,N
1506867275.5,286046997.3,N
1506867295.3,286046999.1,N
1506867315.2,286047002.4,N
1506867335.9,286046998.7,N
1506867355.7,286046997.8,N
1506867375.6,286046999.4,N
1506867395.4,286047000.5,N
1506867415.2,286046998.2,N
1506867435.0,286046998.5,N
1506867436.0,286046998.5,N
1506867455.8,286047000.6,N
1506867475.6,286047000.7,N
1506867495.4,286047001.0,N
1506867515.3,286047002.6,N
1506867535.1,286047000.5,N
1506867555.8,286046996.7,N
1506867575.7,286046997.0,N
1506867595.5,286047002.6,N
1506867615.3,286047001.2,N
1506867635.2,286047000.1,N
1506867655.9,286047000.3,N
1506867675.7,286047002.2,N
1506867695.6,286046999.8,N
1506867715.4,286047000.6,N
1506867735.2,286046996.8,N
1506867755.1,286046998.1,N
1506867756.0,286046998.1,N
1506867775.8,286047003.0,N
1506867795.6,286047009.0,Y
1506867815.5,286047006.5,P
1506867835.3,286047007.1,N
1506867855.1,286047003.3,N
1506867875.9,286047002.5,N
1506867895.7,286047001.5,N
1506867915.5,286047000.3,N
1506867935.3,286047000.4,N
1506867955.2,286047002.0,N
1506867975.0,286047001.9,N
1506867975.9,286047001.9,N
1506867995.7,286047006.0,N
1506868015.6,286047005.6,N
1506868035.4,286047003.1,N
1506868055.2,286047005.3,N
1506868075.1,286047004.2,N
1506868076.0,286047004.2,N
1506868095.8,286047000.3,N
1506868115.6,286047002.5,N
1506868135.5,286047004.0,N
1506868155.3,286047007.4,Y
1506868175.1,286047000.3,P
1506868195.9,286047002.0,N
1506868215.7,286047003.1,N
1506868235.5,286047005.7,Y
1506868255.4,286047000.7,P
1506868275.2,286046999.3,N
1506868295.0,286047000.4,N
1506868295.9,286047000.4,N
1506868315.8,286047000.2,N
1506868335.6,286046996.6,Y
1506868355.4,286046997.4,P
1506868375.3,286046995.1,P
1506868395.1,286046998.9,N
1506868396.0,286046998.9,N
1506868415.8,286046995.1,N
1506868435.7,286046994.5,N
1506868455.5,286046993.3,Y
1506868475.3,286046998.4,P
1506868495.2,286046996.5,P
1506868515.9,286046997.6,P
1506868535.7,286046998.9,N
1506868555.5,286046997.6,N
1506868575.4,286046995.6,Y
1506868595.2,286046998.6,P
1506868615.1,286046998.3,P
1506868616.0,286046998.3,P
1506868635.8,286046998.2,Y
1506868655.6,286047000.6,P
1506868675.5,286046996.5,N
1506868695.3,286046999.0,N
1506868715.1,286047001.0,N
1506868735.8,286047004.2,N
1506868755.7,286047007.5,Y
1506868775.5,286047005.7,P
1506868795.4,286047004.7,N
1506868815.2,286047007.8,P
1506868835.0,286047010.7,Y
1506868835.9,286047010.7,P
1506868855.8,286047007.5,N
1506868875.6,286047007.5,N
1506868895.4,286047003.8,N
1506868915.3,286047004.3,N
1506868935.1,286047002.2,N
1506868936.0,286047002.2,N
1506868955.8,286047004.4,N
1506868975.6,286047002.2,N
1506868995.5,286047001.9,N
1506869015.3,286047003.0,N
1506869035.1,286047002.0,N
1506869055.9,286046998.2,N
1506869075.7,286047004.2,N
1506869095.5,286047002.7,N
1506869115.4,286047000.6,N
1506869135.2,286047001.8,N
1506869155.0,286046998.1,N
1506869155.9,286046998.1,N
1506869175.8,286047002.2,N
1506869195.6,286047000.0,N
1506869215.4,286047001.1,N
1506869235.3,286046997.0,N
1506869255.1,286047000.9,N
1506869256.0,286047000.9,N
1506869275.8,286046996.9,N
1506869295.6,286046996.9,N
1506869315.5,286046997.8,N
1506869335.3,286047001.1,N
1506869355.1,286047001.0,N
1506869375.9,286046998.8,N
1506869395.7,286047000.7,N
1506869415.5,286047000.7,N
1506869435.4,286047000.7,N
1506869455.2,286047002.4,N
1506869475.0,286047002.2,N
1506869475.9,286047002.2,N
1506869495.8,286046998.5,N
1506869515.6,286047000.4,N
1506869535.4,286047000.4,N
1506869555.3,286047000.8,N
1506869575.1,286046998.4,N
1506869576.0,286046998.4,N
1506869595.8,286047000.0,N
1506869615.7,286047003.8,N
1506869635.5,286047004.3,N
1506869655.3,286046999.7,N
1506869675.1,286047000.9,N
1506869695.9,286047002.4,N
1506869715.7,286047001.9,N
1506869735.5,286047004.4,N
1506869755.4,286047003.5,N
1506869775.2,286047003.2,N
1506869795.0,286047003.3,N
1506869795.9,286047003.3,N
1506869815.8,286047002.6,N
1506869835.6,286046999.8,N
1506869855.4,286047000.2,N
1506869875.3,286047004.1,N
1506869895.1,286046998.7,N
1506869896.0,286046998.7,N
1506869915.8,286047000.3,N
1506869935.7,286046997.3,N
1506869955.5,286046995.7,N
1506869975.3,286047000.6,N
1506869995.1,286047002.4,N
